     2              OBSERVATION DATA    GPS                 RINEX VERSION / TYPE
teqc 1997Jul24 19970902 21:07:45UTC                         PGM / RUN BY / DATE
                                                            COMMENT
BIT 2 OF LLI FLAGS DATA COLLECTED UNDER A-S CONDITION       COMMENT
BIT 2 OF LLI FLAGS DATA COLLECTED UNDER A-S CONDITION       COMMENT
Original Marker Name: OCOT.55477                            COMMENT
Campaign Name: Salt. Tr. Crust. Monit. May-Jun 1986         COMMENT
4-Character Station Name: OCOT                              COMMENT
6-Character Antenna Code: TI4100                            COMMENT
Vertical Measurement Point: PAE                             COMMENT
Vertical Offset to Rinex Ref. Point: 0.0000                 COMMENT
Radial Measurement Point: RRP                               COMMENT
Radial Offset to Rinex Ref. Point: 0.0000                   COMMENT
Antenna Height from Field Measurement: 1.3275 m             COMMENT
Original XYZ: -2253420.0711 -3932144.3292 2988976.6618      COMMENT
New XYZ position is based on association with SCEC monument COMMENT
E1C8V7N3+0011. Position of that monument is believed to be  COMMENT
valid to within 1 m horizontally; vertical accuracy         COMMENT
should be no worse than 3-times this value.                 COMMENT
                                                            COMMENT
Revised Rinex header created by UCSD GPS archive for        COMMENT
GSAC on 10-Apr-1999 (1999:100) 05:08:06 GMT                 COMMENT
For assistance contact dagnew@ucsd.edu or hjohnson@ucsd.edu COMMENT
                                                            COMMENT
OCOTILLO NCMN 1982                                          MARKER NAME
05 NATIONAL GEODETIC SURVEY                                 OBSERVER / AGENCY
UT-33 TI 4100 1.0                                           REC # / TYPE / VERS
4091 TI 4100                                                ANT # / TYPE
 -2335602.0000 -4832244.0000  3434393.0000                  APPROX POSITION XYZ
        1.3275        0.0000        0.0000                  ANTENNA: DELTA H/E/N
     1     1     0                                          WAVELENGTH FACT L1/2
     4    P1    P2    L1    L2                              # / TYPES OF OBSERV
     6                                                      INTERVAL
  1986     6    11     4    46   53.000000                  TIME OF FIRST OBS
  1986     6    11     4    59   59.000000                  TIME OF LAST OBS
     0                                                      # OF SATELLITES
                                                            END OF HEADER
 86  6 11  4 46 53.0800000  0  3G12G13G 7
  21965573.482    21965576.098    31560470.862 9 -29439723.494 8
  22440678.044    22440679.733    30147603.104 9 -25958786.594 9
  24307509.416    24307510.676    16241748.752 9 -39712247.550 8
 86  6 11  4 46 59.0800000  0  3G12G13G 7
  21968441.698    21968443.488    31575540.357 9 -29427981.036 8
  22442467.853    22442468.010    30157003.664 9 -25951461.488 8
  24307054.027    24307054.385    16239355.766 9 -39714112.217 8
 86  6 11  4 47  5.0800000  0  3G12G13G 7
  21971313.181    21971314.297    31590627.886 9 -29416224.517 8
  22444257.269    22444257.396    30166405.375 9 -25944135.468 8
                  24306604.976                   -39715953.306 8
 86  6 11  4 47 11.0800000  0  3G12G13G 7
  21974188.058    21974188.371    31605733.557 9 -29404453.855 9
  22446046.503    22446047.670    30175808.392 9 -25936808.454 9
  24306161.877    24306162.563    16200575.223 9 -39717766.002 8
 86  6 11  4 47 17.0800000  0  3G12G13G 7
  21977066.516    21977067.136    31620857.330 9 -29392669.087 8
  22447836.705    22447836.570    30185212.628 9 -25929480.457 8
  24305725.088    24305726.678    16198286.106 9 -39719549.732 8
 86  6 11  4 47 23.0800000  0  3G12G13G 7
  21979947.235    21979948.175    31635999.105 9 -29380870.304 8
  22449624.818    22449625.498    30194618.052 9 -25922151.555 9
  24305295.568    24305297.658    16196031.329 9 -39721307.080 8
 86  6 11  4 47 29.0800000  0  3G12G13G 7
  21982832.033    21982833.528    31651158.886 9 -29369057.491 8
  22451415.055    22451416.028    30204024.630 9 -25914821.763 7
  24304872.317    24304875.452    16193805.463 9 -39723041.523 7
 86  6 11  4 47 35.0800000  0  3G12G13G 7
  21985718.819    21985721.482    31666336.650 8 -29357230.671 8
  22453205.007    22453206.823    30213432.387 8 -25907491.037 8
  24304453.215    24304455.705    16191605.011 9 -39724756.144 8
 86  6 11  4 47 41.0800000  0  3G12G13G 7
  21988611.541    21988612.958    31681532.324 9 -29345389.884 8
  22454995.809    22454997.218    30222841.264 9 -25900159.444 9
  24304039.493    24304041.253    16189427.428 9 -39726452.970 9
 86  6 11  4 47 47.0800000  0  3G12G13G 7
  21991506.372    21991509.238    31696745.858 9 -29333535.193 8
  22456786.411    22456788.064    30232251.332 9 -25892826.916 8
  24303628.619    24303630.350    16187270.648 9 -39728133.557 9
 86  6 11  4 47 53.0800000  0  3G12G13G 7
  21994404.606    21994405.767    31711977.333 9 -29321666.501 8
  22458576.721    22458578.222    30241662.564 9 -25885493.493 9
  24303222.323    24303223.824    16185134.484 9 -39729798.100 8
 86  6 11  4 47 59.0800000  0  3G12G13G 7
  21997306.903    21997307.934    31727226.646 9 -29309783.917 8
  22460367.587    22460370.670    30251074.912 9 -25878159.186 8
  24302820.377    24302821.793    16183021.949 9 -39731444.234 8
 86  6 11  4 48  5.0800000  0  3G12G13G 7
  22000211.987    22000213.033    31742493.823 9 -29297887.422 8
  22462158.825    22462161.238    30260488.444 9 -25870823.954 9
                  24302426.775                   -39733066.544 8
 86  6 11  4 48 11.0800000  0  3G12G13G 7
  22003120.421    22003121.397    31757778.921 9 -29285976.945 7
  22463950.616    22463951.769    30269903.215 9 -25863487.758 8
  24302035.417    24302038.450    16144518.621 9 -39734660.333 9
 86  6 11  4 48 17.0800000  0  3G12G13G 7
  22006031.830    22006033.823    31773081.905 9 -29274052.546 8
  22465742.576    22465744.260    30279319.283 9 -25856150.574 8
  24301653.133    24301654.335    16142510.576 9 -39736225.031 9
 86  6 11  4 48 23.0800000  0  3G12G13G 7
  22008947.538    22008949.235    31788402.557 9 -29262114.374 8
  22467534.503    22467535.941    30288736.482 9 -25848812.492 9
  24301277.501    24301279.462    16140536.197 9 -39737763.497 8
 86  6 11  4 48 29.0800000  0  3G12G13G 7
  22011866.952    22011868.216    31803740.971 9 -29250162.364 8
  22469325.899    22469328.196    30298154.862 9 -25841473.487 8
  24300906.949    24300908.710    16138590.992 9 -39739279.250 7
 86  6 11  4 48 35.0800000  0  3G12G13G 7
  22014789.237    22014790.690    31819097.220 9 -29238196.454 8
  22471118.856    22471121.173    30307574.457 9 -25834133.552 8
  24300542.681    24300543.625    16136671.091 9 -39740775.272 9
 86  6 11  4 48 41.0800000  0  3G12G13G 7
  22017714.883    22017716.032    31834471.122 9 -29226216.796 8
  22472912.384    22472914.938    30316995.104 9 -25826792.775 7
  24300180.601    24300181.975    16134773.861 9 -39742253.628 9
 86  6 11  4 48 47.0800000  0  3G12G13G 7
  22020642.790    22020644.866    31849862.643 9 -29214223.395 8
  22474703.873    22474706.519    30326416.935 9 -25819451.087 9
  24299823.944    24299825.990    16132897.422 9 -39743715.782 7
 86  6 11  4 48 53.0800000  0  3G12G13G 7
  22023574.697    22023577.312    31865271.859 9 -29202216.219 8
  22476498.261    22476500.170    30335840.017 9 -25812108.423 9
  24299471.065    24299471.237    16131041.721 9 -39745161.779 8
 86  6 11  4 48 59.0800000  0  3G12G13G 7
  22026510.049    22026512.718    31880698.803 9 -29190195.241 8
  22478291.045    22478293.591    30345264.281 9 -25804764.832 9
  24299122.135    24299123.152    16129210.021 9 -39746589.063 8
 86  6 11  4 49  5.0800000  0  3G12G13G 7
  22029449.741    22029451.987    31896143.209 9 -29178160.634 8
  22480085.210    22480086.991    30354689.604 9 -25797420.422 9
                  24298780.445                   -39747992.367 7
 86  6 11  4 49 11.0800000  0  3G12G13G 7
  22032392.811    22032394.748    31911605.199 9 -29166112.318 8
  22481879.512    22481881.185    30364116.144 9 -25790075.072 9
  24298444.179    24298444.608    16090985.905 9 -39749367.070 8
 86  6 11  4 49 17.0800000  0  3G12G13G 7
  22035338.387    22035339.980    31927084.844 9 -29154050.264 7
  22483673.139    22483674.836    30373543.841 9 -25782728.805 8
  24298114.296    24298115.726    16089259.035 9 -39750712.683 7
 86  6 11  4 49 23.0800000  0  3G12G13G 7
  22038286.760    22038289.329    31942581.944 9 -29141974.600 8
  22485467.984    22485468.901    30382972.682 9 -25775381.652 9
  24297792.609    24297795.456    16087565.694 9 -39752032.161 8
 86  6 11  4 49 29.0800000  0  3G12G13G 7
  22041238.899    22041242.533    31958096.500 9 -29129885.340 9
  22487262.607    22487264.147    30392402.742 9 -25768033.552 9
  24297475.160    24297476.532    16085901.391 9 -39753329.020 9
 86  6 11  4 49 35.0800000  0  3G12G13G 7
  22044195.243    22044198.232    31973628.620 9 -29117782.383 8
  22489056.995    22489058.876    30401834.094 9 -25760684.440 8
  24297164.049    24297165.364    16084262.311 9 -39754606.220 8
 86  6 11  4 49 41.0800000  0  3G12G13G 7
  22047154.924    22047156.936    31989178.240 9 -29105665.803 8
  22490851.238    22490854.128    30411266.636 9 -25753334.416 9
  24296855.900    24296857.259    16082645.916 9 -39755865.731 9
 86  6 11  4 49 47.0800000  0  3G12G13G 7
  22050116.522    22050119.113    32004745.213 9 -29093535.689 8
  22492647.285    22492647.929    30420700.205 9 -25745983.575 9
  24296552.473    24296554.764    16081050.240 9 -39757109.118 8
 86  6 11  4 49 53.0800000  0  3G12G13G 7
  22053082.024    22053085.197    32020329.666 9 -29081391.963 8
  22494441.381    22494444.084    30430134.914 9 -25738631.845 8
  24296253.210    24296253.640    16079475.273 9 -39758336.360 8
 86  6 11  4 49 59.0800000  0  3G12G13G 7
  22056050.605    22056052.830    32035931.543 9 -29069234.654 8
  22496237.991    22496239.280    30439570.760 9 -25731279.238 9
  24295958.484    24295958.584    16077924.632 9 -39759544.648 8
 86  6 11  4 50  5.0800000  0  3G12G13G 7
  22059022.378    22059024.605    32051550.736 9 -29057063.851 8
  22498032.836    22498034.846    30449007.685 9 -25723925.786 9
                  24295670.412                   -39760728.722 8
 86  6 11  4 50 11.0800000  0  3G12G13G 7
  22061998.454    22062001.201    32067187.271 9 -29044879.541 8
  22499828.961    22499831.581    30458445.767 9 -25716571.445 8
  24295385.916    24295387.835    16039971.835 9 -39761884.097 8
 86  6 11  4 50 17.0800000  0  3G12G13G 7
  22064977.383    22064980.560    32082841.187 9 -29032681.684 7
  22501625.816    22501627.004    30467885.144 9 -25709216.075 8
  24295112.624    24295113.096    16038526.400 9 -39763010.387 8
 86  6 11  4 50 23.0800000  0  3G12G13G 7
  22067959.415    22067962.757    32098512.331 9 -29020470.415 8
  22503421.234    22503423.366    30477325.640 9 -25701859.846 8
  24294843.010    24294844.684    16037113.936 9 -39764110.616 9
 86  6 11  4 50 29.0800000  0  3G12G13G 7
  22070944.999    22070947.573    32114200.598 9 -29008245.789 9
  22505218.640    22505220.350    30486767.257 9 -25694502.735 9
  24294580.435    24294580.535    16035730.660 9 -39765188.491 9
 86  6 11  4 50 35.0800000  0  3G12G13G 7
  22073933.406    22073936.816    32129906.163 9 -28996007.693 9
  22507015.789    22507017.391    30496210.138 9 -25687144.649 9
  24294322.354    24294322.027    16034372.471 9 -39766246.821 8
 86  6 11  4 50 41.0800000  0  3G12G13G 7
  22076925.000    22076928.353    32145628.986 9 -28983756.135 8
  22508813.225    22508813.912    30505654.179 9 -25679785.643 9
  24294067.938    24294068.181    16033036.878 9 -39767287.544 8
 86  6 11  4 50 47.0800000  0  3G12G13G 7
  22079920.250    22079924.440    32161368.916 9 -28971491.266 9
  22510611.195    22510612.183    30515099.302 9 -25672425.808 8
  24293817.527    24293818.169    16031721.919 9 -39768312.182 9
 86  6 11  4 50 53.0800000  0  3G12G13G 7
  22082918.617    22082922.158    32177125.991 9 -28959213.032 8
  22512408.930    22512409.611    30524545.545 9 -25665065.085 9
  24293570.679    24293571.737    16030427.742 9 -39769320.625 9
 86  6 11  4 50 59.0800000  0  3G12G13G 7
  22085920.662    22085923.918    32192900.287 9 -28946921.359 8
  22514205.715    22514207.331    30533992.971 9 -25657703.465 9
  24293329.038    24293329.970    16029158.045 9 -39770310.000 9
 86  6 11  4 51  5.0800000  0  3G12G13G 7
  22088926.677    22088928.953    32208691.636 9 -28934616.410 8
  22516003.236    22516004.909    30543441.447 9 -25650341.018 8
                  24293094.796                   -39771274.858 8
 86  6 11  4 51 11.0800000  0  3G12G13G 7
  22091934.060    22091935.894    32224500.030 9 -28922298.188 9
  22517802.630    22517803.059    30552891.003 9 -25642977.731 8
  24292865.105    24292866.064    15991489.056 9 -39772210.891 7
 86  6 11  4 51 17.0800000  0  3G12G13G 7
  22094945.355    22094948.603    32240325.565 9 -28909966.607 8
  22519599.993    22519601.389    30562341.799 9 -25635613.463 8
  24292644.099    24292645.301    15990324.814 9 -39773118.080 8
 86  6 11  4 51 23.0800000  0  3G12G13G 7
  22097960.237    22097963.693    32256168.109 9 -28897621.771 8
  22521398.244    22521399.818    30571793.704 8 -25628248.343 9
  24292428.130    24292429.863    15989194.441 9 -39773999.282 7
 86  6 11  4 51 29.0800000  0  3G12G13G 7
  22100978.074    22100981.642    32272027.579 9 -28885263.755 8
  22523197.911    22523199.278    30581246.661 9 -25620882.398 9
  24292218.371    24292220.203    15988092.104 9 -39774858.243 8
 86  6 11  4 51 35.0800000  0  3G12G13G 7
  22103999.178    22104002.130    32287903.996 8 -28872892.528 7
  22524996.784    22524997.714    30590700.832 9 -25613515.501 8
  24292014.121    24292014.637    15987014.718 9 -39775697.766 8
 86  6 11  4 51 41.0800000  0  3G12G13G 7
  22107025.431    22107026.420    32303797.373 9 -28860508.070 7
  22526795.314    22526797.825    30600156.130 9 -25606147.738 9
  24291812.834    24291815.139    15985959.882 9 -39776519.706 9
 86  6 11  4 51 47.0800000  0  3G12G13G 7
  22110052.638    22110054.063    32319707.661 9 -28848110.444 8
  22528595.196    22528597.035    30609612.489 9 -25598779.145 9
  24291615.196    24291617.499    15984925.512 9 -39777325.716 8
 86  6 11  4 51 53.0800000  0  3G12G13G 7
  22113082.924    22113083.777    32335634.941 9 -28835699.573 8
  22530395.277    22530395.986    30619070.011 9 -25591409.640 8
  24291423.151    24291425.727    15983911.930 9 -39778115.511 8
 86  6 11  4 51 59.0800000  0  3G12G13G 7
  22116116.580    22116118.991    32351579.169 8 -28823275.503 7
  22532194.766    22532196.540    30628528.832 9 -25584039.119 8
                  24291236.588                   -39778885.958 8
 86  6 11  4 52  5.0800000  0  3G12G13G 7
  22119153.525    22119155.680    32367540.195 9 -28810838.340 8
  22533995.084    22533997.137    30637988.774 9 -25576667.732 8
  24291046.948    24291054.317    15946460.341 9 -39779631.793 8
 86  6 11  4 52 11.0800000  0  3G12G13G 7
  22122194.352    22122196.607    32383517.911 9 -28798388.185 8
  22535795.337    22535798.278    30647449.759 8 -25569295.534 9
  24290877.785    24290879.230    15945540.056 9 -39780348.660 8
 86  6 11  4 52 17.0800000  0  3G12G13G 7
  22125238.718    22125240.482    32399512.507 9 -28785924.860 8
  22537595.720    22537598.088    30656911.991 8 -25561922.366 9
  24290709.565    24290711.096    15944657.047 9 -39781036.709 8
 86  6 11  4 52 23.0800000  0  3G12G13G 7
  22128285.832    22128287.177    32415523.908 9 -28773448.459 8
  22539396.246    22539399.222    30666375.351 9 -25554548.316 8
  24290548.186    24290548.915    15943807.216 9 -39781698.900 8
 86  6 11  4 52 29.0800000  0  3G12G13G 7
  22131335.739    22131337.465    32431551.995 9 -28760959.040 8
  22541197.236    22541199.890    30675839.831 9 -25547173.383 9
  24290391.399    24290392.886    15942985.791 9 -39782338.979 8
 86  6 11  4 52 35.0800000  0  3G12G13G 7
  22134388.613    22134390.563    32447596.914 9 -28748456.520 7
  22542999.050    22543000.237    30685305.407 9 -25539797.610 9
  24290240.651    24290241.353    15942189.296 9 -39782959.623 8
 86  6 11  4 52 41.0800000  0  3G12G13G 7
  22137444.280    22137446.645    32463658.585 9 -28735940.926 7
  22544800.520    22544802.488    30694772.124 8 -25532420.954 8
  24290092.352    24290093.740    15941415.350 9 -39783562.693 8
 86  6 11  4 52 47.0800000  0  3G12G13G 7
  22140503.177    22140506.143    32479736.892 9 -28723412.388 7
  22546602.240    22546603.814    30704239.970 9 -25525043.405 8
  24289949.331    24289950.819    15940661.998 9 -39784149.716 8
 86  6 11  4 52 53.0800000  0  3G12G13G 7
  22143566.292    22143567.610    32495831.740 9 -28710870.953 8
  22548404.376    22548406.093    30713708.889 9 -25517665.016 9
  24289809.257    24289811.276    15939929.584 9 -39784720.434 8
 86  6 11  4 52 59.0800000  0  3G12G13G 7
  22146632.766    22146634.377    32511943.316 9 -28698316.471 8
  22550206.647    22550208.809    30723179.059 9 -25510285.664 9
                  24289676.225                   -39785271.758 8
 86  6 11  4 53  5.0800000  0  2G12G13
  22149702.148    22149704.339    32528071.499 9 -28685749.060 8
  22552009.063    22552010.871    30732650.299 9 -25502905.470 8
 86  6 11  4 53 11.0800000  0  3G12G13G 7
  22152774.668    22152775.466    32544216.162 9 -28673168.812 8
  22553811.962    22553813.959    30742122.541 9 -25495524.507 9
  24289424.940    24289426.199    15902112.724 9 -39786295.503 8
 86  6 11  4 53 17.0800000  0  3G12G13G 7
  22155850.099    22155851.596    32560377.386 8 -28660575.643 8
  22555614.284    22555616.051    30751595.919 9 -25488142.643 8
  24289310.852    24289312.041    15901511.279 9 -39786764.169 7
 86  6 11  4 53 23.0800000  0  3G12G13G 7
  22158928.990    22158930.573    32576555.174 9 -28647969.577 8
  22557417.121    22557418.887    30761070.485 9 -25480759.862 8
  24289202.646    24289203.606    15900942.339 9 -39787207.109 9
 86  6 11  4 53 29.0800000  0  3G12G13G 7
  22162009.584    22162011.846    32592749.334 9 -28635350.749 8
  22559219.772    22559221.954    30770546.153 9 -25473376.231 9
  24289099.963    24289101.122    15900402.186 9 -39787627.992 8
 86  6 11  4 53 35.0800000  0  3G12G13G 7
  22165094.760    22165097.130    32608959.869 9 -28622719.181 9
  22561023.752    22561025.885    30780022.916 9 -25465991.731 9
  24289002.117    24289002.161    15899886.699 9 -39788029.672 8
 86  6 11  4 53 41.0800000  0  3G12G13G 7
  22168182.676    22168184.094    32625186.908 9 -28610074.741 8
  22562827.541    22562829.173    30789500.911 9 -25458606.279 9
  24288908.406    24288909.493    15899393.554 9 -39788413.945 8
 86  6 11  4 53 47.0800000  0  3G12G13G 7
  22171272.660    22171275.644    32641430.341 9 -28597417.505 8
  22564630.928    22564633.403    30798980.056 9 -25451219.938 9
  24288818.158    24288817.800    15898920.992 9 -39788782.155 7
 86  6 11  4 53 53.0800000  0  3G12G13G 7
  22174367.968    22174369.521    32657690.089 9 -28584747.574 7
  22566434.216    22566436.784    30808460.322 9 -25443832.719 9
  24288732.374    24288731.859    15898469.313 9 -39789134.122 8
 86  6 11  4 53 59.0800000  0  3G12G13G 7
  22177465.679    22177466.316    32673966.251 9 -28572064.840 8
  22568238.513    22568241.595    30817941.727 9 -25436444.594 9
                  24288651.411                   -39789466.404 8
 86  6 11  4 54  5.0800000  0  3G12G13G 7
  22180566.114    22180567.253    32690258.807 9 -28559369.344 7
  22570043.173    22570045.269    30827424.304 9 -25429055.576 8
  24288495.470    24288576.059    15861577.118 9 -39789773.631 7
 86  6 11  4 54 11.0800000  0  3G12G13G 7
  22183668.069    22183670.646    32706567.592 9 -28546661.193 8
  22571848.071    22571849.752    30836907.933 9 -25421665.725 9
  24288507.991    24288510.036    15861220.209 9 -39790051.720 8
 86  6 11  4 54 17.0800000  0  3G12G13G 7
  22186774.695    22186776.657    32722892.680 9 -28533940.353 7
  22573652.602    22573654.276    30846392.636 9 -25414275.048 8
  24288447.061    24288448.851    15860900.487 9 -39790301.251 8
 86  6 11  4 54 23.0800000  0  3G12G13G 7
  22189884.358    22189886.609    32739234.070 9 -28521206.815 8
  22575458.444    22575459.868    30855878.560 9 -25406883.417 8
  24288392.600    24288392.985    15860613.065 9 -39790525.206 9
 86  6 11  4 54 29.0800000  0  3G12G13G 7
  22192997.466    22192999.558    32755591.672 9 -28508460.619 8
  22577263.870    22577264.951    30865365.658 9 -25399490.867 9
  24288343.390    24288344.993    15860353.732 9 -39790727.274 7
 86  6 11  4 54 35.0800000  0  3G12G13G 7
  22196113.596    22196116.683    32771965.471 9 -28495701.817 8
  22579069.962    22579071.092    30874853.827 9 -25392097.484 9
  24288298.445    24288299.432    15860119.020 9 -39790910.174 8
 86  6 11  4 54 41.0800000  0  3G12G13G 7
  22199232.538    22199234.568    32788355.553 9 -28482930.336 7
  22580875.017    22580876.026    30884343.191 9 -25384703.175 8
  24288258.851    24288259.825    15859906.681 9 -39791075.617 8
 86  6 11  4 54 47.0800000  0  3G12G13G 7
  22202354.657    22202357.356    32804761.766 9 -28470146.268 8
  22582681.394    22582682.582    30893833.693 9 -25377307.977 9
  24288222.234    24288222.478    15859714.864 9 -39791225.088 8
 86  6 11  4 54 53.0800000  0  3G12G13G 7
  22205479.498    22205481.639    32821184.043 9 -28457349.689 8
  22584487.121    22584488.367    30903325.237 9 -25369911.960 9
  24288189.465    24288190.511    15859543.991 9 -39791358.243 8
 86  6 11  4 54 59.0800000  0  3G12G13G 7
  22208607.545    22208609.846    32837622.392 9 -28444540.579 8
  22586293.263    22586294.830    30912817.989 9 -25362515.013 9
                  24288162.092                   -39791471.567 8
 86  6 11  4 55  5.0800000  0  3G12G13G 7
  22211738.510    22211741.239    32854076.859 9 -28431718.931 9
  22588099.399    22588101.459    30922311.981 9 -25355117.094 9
  24288170.534    24288141.186    15822922.205 9 -39791559.679 8
 86  6 11  4 55 11.0800000  0  3G12G13G 7
  22214872.359    22214875.368    32870547.390 9 -28418884.746 9
  22589906.358    22589908.681    30931807.056 8 -25347718.334 9
  24288126.375    24288126.875    15822846.393 9 -39791618.564 8
 86  6 11  4 55 17.0800000  0  3G12G13G 7
  22218011.080    22218013.786    32887033.890 9 -28406038.125 7
  22591714.022    22591715.632    30941303.173 9 -25340318.760 8
  24288118.921    24288117.632    15822807.296 9 -39791649.032 8
 86  6 11  4 55 23.0800000  0  3G12G13G 7
  22221151.139    22221154.040    32903536.328 9 -28393179.092 7
  22593521.452    22593523.648    30950800.373 9 -25332918.349 9
  24288117.245    24288117.118    15822800.194 9 -39791654.170 7
 86  6 11  4 55 29.0800000  0  3G12G13G 7
  22224294.296    22224296.015    32920054.757 9 -28380307.582 8
  22595329.176    22595329.461    30960298.602 9 -25325517.111 9
  24288121.165    24288122.554    15822821.548 9 -39791637.531 8
 86  6 11  4 55 35.0800000  0  3G12G13G 7
  22227440.532    22227442.956    32936589.130 9 -28367423.659 8
  22597136.261    22597138.608    30969797.985 9 -25318115.005 7
  24288130.366    24288131.054    15822867.417 9 -39791601.799 8
 86  6 11  4 55 41.0800000  0  3G12G13G 7
  22230589.704    22230592.577    32953139.467 9 -28354527.299 8
  22598944.063    22598946.918    30979298.545 9 -25310711.963 8
  24288142.886    24288144.819    15822935.408 9 -39791548.805 8
 86  6 11  4 55 47.0800000  0  3G12G13G 7
  22233742.759    22233744.799    32969705.799 9 -28341618.473 8
  22600751.730    22600753.346    30988800.258 9 -25303308.026 8
  24288159.929    24288160.730    15823024.023 9 -39791479.756 8
 86  6 11  4 55 53.0800000  0  3G12G13G 7
  22236898.021    22236898.785    32986287.891 9 -28328697.346 8
  22602559.874    22602562.371    30998303.045 9 -25295903.261 8
  24288180.678    24288181.135    15823133.667 9 -39791394.317 8
 86  6 11  4 55 59.0800000  0  3G12G13G 7
  22240057.254    22240058.515    33002885.839 9 -28315763.889 8
  22604368.306    22604371.132    31007807.009 9 -25288497.568 9
                  24288206.435                   -39791288.850 8
 86  6 11  4 56  5.0800000  0  3G12G13G 7
  22243218.449    22243221.429    33019499.576 9 -28302818.108 8
  22606177.696    22606179.571    31017312.182 9 -25281090.934 8
  24288289.855    24288238.614    15786787.493 9 -39791157.985 8
 86  6 11  4 56 11.0800000  0  3G12G13G 7
  22246382.555    22246385.124    33036129.078 9 -28289860.065 7
  22607987.945    22607988.859    31026818.435 9 -25273683.470 8
  24288276.904    24288277.076    15786992.834 9 -39790997.956 7
 86  6 11  4 56 17.0800000  0  3G12G13G 7
  22249549.912    22249552.689    33052774.253 9 -28276889.805 7
  22609796.255    22609797.743    31036325.694 9 -25266275.201 7
  24288323.266    24288322.552    15787234.590 9 -39790809.564 8
 86  6 11  4 56 23.0800000  0  3G12G13G 7
  22252721.834    22252723.019    33069435.200 9 -28263907.247 8
  22611605.910    22611606.453    31045834.092 9 -25258866.061 9
  24288375.452    24288375.323    15787509.220 9 -39790595.955 8
 86  6 11  4 56 29.0800000  0  3G12G13G 7
  22255894.464    22255896.758    33086111.873 9 -28250912.440 8
  22613415.236    22613417.124    31055343.600 9 -25251456.045 8
  24288433.103    24288432.874    15787811.184 9 -39790360.663 9
 86  6 11  4 56 35.0800000  0  3G12G13G 7
  22259070.529    22259071.779    33102804.165 9 -28237905.463 7
  22615225.806    22615227.023    31064854.179 9 -25244045.206 8
  24288495.162    24288495.691    15788137.497 9 -39790106.389 9
 86  6 11  4 56 41.0800000  0  3G12G13G 7
  22262250.260    22262251.963    33119512.095 9 -28224886.299 8
  22617035.497    22617036.005    31074365.898 9 -25236633.479 8
  24288561.799    24288562.057    15788485.876 9 -39789834.915 8
 86  6 11  4 56 47.0800000  0  3G12G13G 7
  22265433.557    22265432.959    33136235.726 9 -28211854.900 7
  22618845.452    22618847.291    31083878.783 8 -25229220.835 9
  24288631.256    24288631.198    15788854.783 9 -39789547.455 8
 86  6 11  4 56 53.0800000  0  3G12G13G 7
  22268618.125    22268619.322    33152974.897 9 -28198811.392 8
  22620655.894    22620656.846    31093392.769 9 -25221807.326 8
  24288705.864    24288706.465    15789244.853 9 -39789243.508 8
 86  6 11  4 56 59.0800000  0  3G12G13G 7
  22271806.553    22271806.941    33169729.523 9 -28185755.817 8
  22622466.208    22622467.608    31102907.828 9 -25214392.997 9
                  24288785.895                   -39788919.467 7
 86  6 11  4 57  5.0800000  0  3G12G13G 7
  22274998.308    22274999.421    33186499.811 9 -28172688.064 8
  22624277.208    22624278.816    31112424.052 9 -25206977.756 9
  24288872.860    24288871.894    15753186.246 9 -39788569.818 8
 86  6 11  4 57 11.0800000  0  3G12G13G 7
  22278191.773    22278193.254    33203285.622 9 -28159608.217 8
  22626088.773    22626089.524    31121941.344 9 -25199561.682 9
  24288961.884    24288963.443    15753672.701 9 -39788190.894 7
 86  6 11  4 57 17.0800000  0  3G12G13G 7
  22281388.238    22281390.239    33220086.908 9 -28146516.312 7
  22627899.844    22627900.889    31131459.685 9 -25192144.790 8
  24289061.488    24289063.865    15754195.156 9 -39787783.788 7
 86  6 11  4 57 23.0800000  0  3G12G13G 7
  22284588.407    22284590.196    33236903.714 9 -28133412.314 7
  22629711.309    22629713.126    31140979.191 9 -25184726.995 9
  24289166.747    24289169.238    15754749.795 9 -39787351.592 8
 86  6 11  4 57 29.0800000  0  3G12G13G 7
  22287792.113    22287792.658    33253735.952 9 -28120296.286 8
  22631522.660    22631524.705    31150499.915 9 -25177308.247 9
  24289278.244    24289279.332    15755332.169 9 -39786897.792 8
 86  6 11  4 57 35.0800000  0  3G12G13G 7
  22290998.595    22290998.946    33270583.530 9 -28107168.298 7
  22633334.848    22633335.957    31160021.669 9 -25169888.689 9
  24289393.390    24289395.466    15755938.640 9 -39786425.220 8
 86  6 11  4 57 41.0800000  0  3G12G13G 7
  22294206.762    22294207.103    33287446.470 9 -28094028.356 7
  22635146.606    22635148.187    31169544.543 8 -25162468.269 9
  24289513.042    24289514.116    15756566.986 9 -39785935.600 8
 86  6 11  4 57 47.0800000  0  3G12G13G 7
  22297418.643    22297420.042    33304324.840 9 -28080876.374 8
  22636960.338    22636960.123    31179068.666 9 -25155046.878 9
  24289637.891    24289638.318    15757215.974 9 -39785429.886 8
 86  6 11  4 57 53.0800000  0  3G12G13G 7
  22300633.808    22300633.116    33321218.433 9 -28067712.531 6
  22638772.512    22638773.650    31188593.968 9 -25147624.554 9
  24289764.885    24289765.127    15757886.049 9 -39784907.756 7
 86  6 11  4 57 59.0800000  0  3G12G13G 7
  22303851.111    22303851.483    33338127.187 9 -28054536.882 8
  22640585.364    22640586.567    31198120.173 9 -25140201.535 9
                  24289896.901                   -39784365.246 7
 86  6 11  4 58  5.0800000  0  3G12G13G 7
  22307071.613    22307072.795    33355051.287 9 -28041349.270 8
  22642397.852    22642399.721    31207647.495 9 -25132777.645 8
  24289986.876    24290038.232    15722099.945 9 -39783796.907 8
 86  6 11  4 58 11.0800000  0  3G12G13G 7
  22310295.269    22310297.329    33371990.681 9 -28028149.735 8
  22644211.185    22644213.311    31217176.038 9 -25125352.800 9
  24290181.409    24290182.699    15722867.105 9 -39783199.260 8
 86  6 11  4 58 17.0800000  0  3G12G13G 7
  22313521.302    22313523.170    33388945.245 9 -28014938.385 7
  22646024.240    22646025.390    31226705.579 9 -25117927.185 8
  24290334.861    24290335.749    15723669.680 9 -39782573.479 8
 86  6 11  4 58 23.0800000  0  3G12G13G 7
  22316750.089    22316752.675    33405915.079 9 -28001715.143 8
  22647837.578    22647839.388    31236236.231 9 -25110500.695 9
  24290493.335    24290493.035    15724504.756 9 -39781922.775 7
 86  6 11  4 58 29.0800000  0  3G12G13G 7
  22319983.035    22319982.858    33422900.141 9 -27988480.030 7
  22649651.218    22649653.766    31245768.060 9 -25103073.299 8
  24290657.948    24290657.847    15725367.366 9 -39781250.608 8
 86  6 11  4 58 35.0800000  0  3G12G13G 7
  22323217.557    22323219.488    33439900.282 9 -27975233.186 7
  22651464.888    22651466.497    31255301.018 9 -25095645.006 8
  24290826.409    24290826.524    15726254.079 9 -39780559.650 8
 86  6 11  4 58 41.0800000  0  3G12G13G 7
  22326455.405    22326457.338    33456915.501 9 -27961974.565 7
  22653280.903    22653281.444    31264835.129 9 -25088215.834 7
  24290999.751    24290999.122    15727162.498 9 -39779851.793 8
 86  6 11  4 58 47.0800000  0  3G12G13G 7
  22329695.521    22329697.784    33473945.879 9 -27948704.143 7
  22655094.471    22655096.102    31274370.509 9 -25080785.657 7
  24291176.240    24291176.641    15728091.334 9 -39779128.031 8
 86  6 11  4 58 53.0800000  0  3G12G13G 7
  22332939.412    22332941.530    33490991.352 9 -27935421.959 7
  22656909.470    22656910.751    31283906.935 9 -25073354.673 9
  24291357.581    24291357.366    15729041.455 9 -39778387.684 8
 86  6 11  4 58 59.0800000  0  3G12G13G 7
  22336186.225    22336188.104    33508051.742 9 -27922128.138 8
  22658724.827    22658725.944    31293444.407 9 -25065922.864 9
                  24291542.355                   -39777626.919 8
 86  6 11  4 59  5.0800000  0  3G12G13G 7
  22339434.644    22339437.662    33525127.197 9 -27908822.590 8
  22660539.155    22660540.306    31302982.983 9 -25058490.213 9
  24291661.521    24291734.827    15693533.144 9 -39776840.150 8
 86  6 11  4 59 11.0800000  0  3G12G13G 7
  22342688.596    22342690.637    33542217.651 9 -27895505.358 8
  22662354.741    22662356.736    31312522.765 9 -25051056.621 8
  24291934.168    24291934.412    15694580.561 9 -39776023.834 8
 86  6 11  4 59 17.0800000  0  3G12G13G 7
  22345943.598    22345945.079    33559322.989 9 -27882176.522 8
  22664169.862    22664171.572    31322063.601 9 -25043622.193 9
  24292139.333    24292141.264    15695664.376 9 -39775179.689 8
 86  6 11  4 59 23.0800000  0  3G12G13G 7
  22349200.828    22349203.475    33576443.185 9 -27868836.121 8
  22665986.799    22665987.558    31331605.496 9 -25036186.948 8
  24292350.880    24292352.984    15696779.540 9 -39774310.722 8
 86  6 11  4 59 29.0800000  0  3G12G13G 7
  22352461.546    22352463.504    33593578.411 9 -27855483.995 8
  22667803.258    22667804.302    31341148.602 9 -25028750.764 9
  24292568.765    24292570.254    15697922.069 9 -39773420.439 8
 86  6 11  4 59 35.0800000  0  3G12G13G 7
  22355725.072    22355727.512    33610728.505 9 -27842120.281 8
  22669617.950    22669621.013    31350692.800 9 -25021313.718 9
  24292791.617    24292791.560    15699088.517 9 -39772511.517 8
 86  6 11  4 59 41.0800000  0  3G12G13G 7
  22358991.950    22358993.156    33627893.330 9 -27828745.102 8
  22671435.175    22671435.540    31360238.017 9 -25013875.886 8
  24293017.473    24293017.158    15700276.588 9 -39771585.746 8
 86  6 11  4 59 47.0800000  0  3G12G13G 7
  22362260.511    22362262.234    33645073.025 8 -27815358.321 8
  22673251.855    22673252.778    31369784.548 8 -25006437.029 9
  24293248.036    24293247.622    15701484.979 9 -39770644.139 7
 86  6 11  4 59 53.0800000  0  3G12G13G 7
  22365532.838    22365534.902    33662267.578 9 -27801959.978 7
  22675068.714    22675068.780    31379332.174 9 -24998997.315 9
  24293481.377    24293482.120    15702714.672 9 -39769685.935 8
